Location: Acequia del Cap
(41.7000°N, 0.6167°E)
Time: 00:32:59
(UTC+00:00)

Cosmos 1825 Rocket - Pass Details

Date: 07 August 2020
Orbit: 604 x 631 km, 82.5° (Epoch: 22 September)

Event Time Altitude Azimuth Distance (km) Brightness Sun altitude
Rises 03:49:48 0° 354° (N) 2,880 7.4 -12.0°
Reaches altitude 10° 03:52:03 10° 358° (N) 1,968 6.6 -11.6°
Maximum altitude 03:56:22 67° 80° (E) 660 3.9 -11.0°
Drops below altitude 10° 04:00:39 10° 164° (SSE) 1,944 5.9 -10.3°
Sets 04:02:52 0° 167° (SSE) 2,842 6.8 -10.0°
